Location: Arthez
(43.0833°N, 0.2500°W)
Time: 09:00:53
(UTC+00:00)

deb Kosmos-970 - Pass Details

Date: 20 August 2022
Orbit: 900 x 1112 km, 65.8° (Epoch: 04 October)

Event Time Altitude Azimuth Distance (km) Brightness Sun altitude
Rises 22:12:07 0° 330° (NNW) 3,946 ? -29.0°
Reaches altitude 10° 22:15:14 10° 341° (NNW) 2,978 ? -29.3°
Maximum altitude 22:21:22 31° 41° (NE) 1,829 ? -29.9°
Enters shadow 22:23:21 26° 69° (ENE) 1,967 ? -30.1°
